Regional Weather Roundup
Issued by NWS Newport/Morehead, NC

Current Version | Previous Version | Text Only | Print | Product List | Glossary On
Versions: 1 2 3 4 5 6 7 8 9 10 11 12 13 14 15 16 17 18 19 20 21 22 23 24 25 26 27 28 29 30 31 32 33 34 35 36 37 38 39 40 41 42 43 44 45 46 47 48 49 50
785
ASUS42 KMHX 230614
RWRMHX
WEATHER ROUNDUP FOR EASTERN NORTH CAROLINA
NATIONAL WEATHER SERVICE NEWPORT/MOREHEAD CITY NC
100 AM EST TUE JAN 23 2018

NOTE: "FAIR" INDICATES FEW OR NO CLOUDS BELOW 12,000 FEET
WITH NO SIGNIFICANT WEATHER AND/OR OBSTRUCTIONS TO VISIBILITY

NCZ015>017-031-032-045>047-102-103-230700-
NORTH COAST

CITY           SKY/WX    TMP DP  RH WIND       PRES   REMARKS
EDENTON        FAIR      55  53  93 S7        30.02F
ELIZABETH CITY FAIR      57  57 100 S6        30.01F
KITTY HAWK     FAIR      57  57 100 CALM      30.01F
MANTEO         FAIR      49  49  98 S7        30.03F FOG

$$

NCZ045>047-081-094-103-104-230700-
CENTRAL COAST

CITY           SKY/WX    TMP DP  RH WIND       PRES   REMARKS
FRISCO         NOT AVBL

$$

NCZ095-097-098-100-101-230700-
SOUTHERN COAST

CITY           SKY/WX    TMP DP  RH WIND       PRES   REMARKS
BEAUFORT       FAIR      62  59  90 S13       30.02F
CEDAR ISLAND   NOT AVBL
JACKSONVILLE   FAIR      62  60  93 S7        30.01F
PINEY ISLAND   NOT AVBL
WILMINGTON     MOCLDY    63  60  90 S10       30.01F


$$

NCZ011>013-027>030-043-044-078>080-089-090>093-098-230700-
COASTAL PLAIN

CITY           SKY/WX    TMP DP  RH WIND       PRES   REMARKS
AHOSKIE        CLOUDY    55  55  99 S6        29.98F
CLINTON        FAIR      61  60  97 S7        29.97F
ELIZABETHTOWN  NOT AVBL
GOLDSBORO      FAIR      61  58  89 S8        29.95F
GREENVILLE     FAIR      59  57  94 S12       30.00F
HAVELOCK       NOT AVBL
KENANSVILLE    FAIR      61  57  88 S6        29.98F
KINSTON        FAIR      60  58  91 S10       30.00F
NEW BERN       FAIR      59  57  93 S7        30.02F
RICHLANDS      FAIR      60  57  89 S9        30.01F
ROCKY MOUNT    FAIR      58  58 100 SE6       29.95F
WASHINGTON     FAIR      58  56  94 S3        30.01F
WHITEVILLE     FAIR      60  59  95 S6        29.97F

$$

AMZ130-135-150-152-154-156-158-170-250-252-270-ANZ085-086-088-633-658-670-230700-
MARINE OBSERVATIONS

STATION/POSITION TIME  TEMP    WIND        PRES    WAVE   SWELL
                       AIR SEA DIR/SP/G            HT/PER HT/PER
                 (UTC) (F)     (DEG/KT/KT) (MB)    (FT/S) (FT/S)
CHESAPEAKE LIGHT NOT AVBL
64 E VA BEACH    0550   61 60  190/ 10/ 12 1017.3    2/10   2/10
DUCK             0548   57 41  190/ 11/ 12 1016.1
2 E DUCK         0600      41                N/A     1/ 9
OREGON INLET     0542   54 45  170/ 10/ 13 1017.0
13E OREGON INLT  0548      42                N/A     2/10   2/10
HATTERAS CG      0548   65 52  190/  9/ 13 1017.0
DIAMOND BUOY     0600   71 69  180/ 23/ 27 1017.5
CAPE LOOKOUT     0600          190/ 11/ 12 1017.1
BEAUFORT LAB     0548   54 48  190/  8/  9 1016.9
30 SE NEW RVR IN 0508   66 60  190/ 12/ 16 1017.6
30 SE NEW RVR IN 0600      59                N/A     4/ 5
27 SE WRIGHTSVLE NOT AVBL
5 SE WRIGHTSVLE  0508   53 47  190/  8/ 12 1017.2
225 S CAPE HAT   0550   69 70  140/ 16/ 19 1020.2    3/ 5   2/ 9
41 SE CHARLESTON 0600   71 70  170/ 19/ 23 1015.5

$$




USA.gov is the U.S. government's official web portal to all federal, state and local government web resources and services.